Location: Alma
(38.7220°N, 88.9090°W)
Time: 02:40:23
(UTC-06:00)

Vanguard 2 Rocket - Visible Passes

Search period start: 22 November 2019 00:00
Search period end: 02 December 2019 00:00
Orbit: 554 x 3326 km, 32.9° (Epoch: 21 November)

Date Brightness Start Highest point End Pass type
(mag) Time Alt. Az. Time Alt. Az. Time Alt. Az.
22 Nov 8.1 04:29:43 30° SSW 04:30:44 31° SSW 04:38:33 10° SE visible
23 Nov 8.6 03:33:41 26° SSE 03:33:41 26° SSE 03:37:53 10° SE visible
23 Nov 9.0 05:40:07 10° WSW 05:44:46 18° SSW 05:51:06 10° SSE visible
24 Nov 8.5 04:43:30 20° SW 04:44:57 21° SSW 04:51:07 10° SSE visible
25 Nov 8.8 03:47:31 20° SSE 03:47:31 20° SSE 03:51:01 10° SE visible
26 Nov 9.0 04:57:21 11° SW 04:59:12 12° SSW 05:02:14 10° S visible
27 Nov 9.1 04:01:22 14° S 04:01:22 14° S 04:03:16 10° SSE visible
28 Nov 9.4 19:19:45 10° S 19:21:46 12° S 19:21:46 12° S visible
29 Nov 9.4 18:22:41 10° SSE 18:23:06 10° SSE 18:23:30 10° SSE visible
29 Nov 9.7 20:31:03 10° SW 20:31:35 11° SW 20:31:35 11° SW visible
30 Nov 9.0 19:30:55 10° SSW 19:35:36 20° S 19:35:36 20° S visible
01 Dec 9.0 18:30:54 10° SSW 18:37:23 19° SSE 18:39:35 17° SE visible
01 Dec 9.7 20:44:11 10° SW 20:45:25 14° SW 20:45:25 14° SW visible
